Simultaneous Nadir Overpasses (SNOs) Predictions

Prediction of SNOs between METOP-A and TERRA Satellite Orbit:

Table of predicted SNOs for the next 14.0 days since TLE Epoch: 6/2/2013
Index Date (METOP-A) Time (METOP-A) Lat,Lon (METOP-A) SZA (METOP-A ) Date (TERRA) Time (TERRA) Lat,Lon (TERRA) SZA (TERRA ) Distance(km) Time Diff (sec)
1 06/04/2013 09:39:15 -81.29, -98.27 118.28 06/04/2013 09:40:13 -81.29, -98.14 118.24 2.11 58
2 06/04/2013 10:29:55 81.29, 69.52 61.77 06/04/2013 10:29:39 81.29, 69.63 61.78 1.80 16
3 06/07/2013 05:13:35 -81.29, -31.36 118.53 06/07/2013 05:14:29 -81.29, -31.56 118.53 3.24 54
4 06/07/2013 06:04:15 81.30, 136.38 61.52 06/07/2013 06:03:55 81.30, 136.19 61.49 3.31 20
5 06/10/2013 00:47:56 -81.30, 35.11 118.78 06/10/2013 00:48:45 -81.30, 34.92 118.78 3.16 49
6 06/10/2013 01:38:36 81.30,-157.19 61.27 06/10/2013 01:38:11 81.30,-157.36 61.24 2.91 25
7 06/12/2013 20:22:17 -81.29, 101.15 119.03 06/12/2013 20:23:00 -81.29, 101.29 118.99 2.42 43
8 06/12/2013 21:12:57 81.29, -91.20 61.01 06/12/2013 21:12:26 81.30, -91.02 61.02 3.04 31
9 06/15/2013 15:56:38 -81.29, 167.54 119.18 06/15/2013 15:57:16 -81.28, 167.56 119.17 0.63 38




NCC Satellite Simultaneous Nadir Overpasses (SNOs) Prediction Service
